Torna al catalogo

CZ-6A DEB

AttivoSSO
NORAD 55888·DEBRIS·🇨🇳 China

Lanciato Nov 11, 2022 da Taiyuan Satellite Launch Center

Loading…

Prossimi Passaggi (prossime 24 ore)

TLE

AggiornatoSource: Space-Track

Epoca: Sep 14, 2026, 13:12 UTC

1 55888U 22151AAL 26257.55060142  .00004607  00000-0  85571-3 0  9996
2 55888  98.4472 287.7232 0127583  20.3566 340.2654 14.60537020197525

Traccia CZ-6A DEB in tempo reale con AllMySat

Download on the App Store